EN

Hourly Weather Dadra and Nagar Haveli

Today, 30 November, Monday

Time Temperature Precipitation Wind Pressure Humidity
00:00 +26°C° 0 mm 1 mps 754 mmHg 70%
01:00 +26°C° 0 mm 1 mps 754 mmHg 70%
02:00 +25°C° 0 mm 1 mps 753 mmHg 71%
03:00 +25°C° 0 mm 1 mps 753 mmHg 71%
04:00 +25°C° 0 mm 1 mps 753 mmHg 71%
05:00 +25°C° 0 mm 1 mps 753 mmHg 71%
06:00 +26°C° 0 mm 1 mps 754 mmHg 68%
07:00 +27°C° 0 mm 1 mps 754 mmHg 65%
08:00 +28°C° 0 mm 1 mps 755 mmHg 62%
09:00 +30°C° 0 mm 1 mps 755 mmHg 57%
10:00 +32°C° 0 mm 2 mps 755 mmHg 51%
11:00 +35°C° 0 mm 2 mps 755 mmHg 46%
12:00 +35°C° 0 mm 2 mps 754 mmHg 44%
13:00 +36°C° 0 mm 2 mps 753 mmHg 43%
14:00 +36°C° 0 mm 2 mps 753 mmHg 42%
15:00 +35°C° 0 mm 2 mps 753 mmHg 47%
16:00 +32°C° 0 mm 2 mps 753 mmHg 53%
17:00 +31°C° 0 mm 2 mps 753 mmHg 58%
18:00 +30°C° 0 mm 2 mps 753 mmHg 61%
19:00 +29°C° 0 mm 1 mps 754 mmHg 63%
20:00 +26°C° 0 mm 0 mps 754 mmHg 66%
21:00 +26°C° 0 mm 0 mps 754 mmHg 66%
22:00 +26°C° 0 mm 0 mps 754 mmHg 65%
23:00 +25°C° 0 mm 0 mps 754 mmHg 65%

Tomorrow, 1 December, Tuesday

Time Temperature Precipitation Wind Pressure Humidity
00:00 +27°C° 0 mm 1 mps 754 mmHg 65%
01:00 +27°C° 0 mm 1 mps 754 mmHg 65%
02:00 +27°C° 0 mm 1 mps 753 mmHg 66%
03:00 +27°C° 0 mm 1 mps 753 mmHg 66%
04:00 +26°C° 0 mm 1 mps 753 mmHg 67%
05:00 +26°C° 0 mm 1 mps 753 mmHg 68%
06:00 +27°C° 0 mm 1 mps 754 mmHg 66%
07:00 +28°C° 0 mm 1 mps 754 mmHg 63%
08:00 +29°C° 0 mm 1 mps 755 mmHg 61%
09:00 +31°C° 0 mm 1 mps 755 mmHg 54%
10:00 +34°C° 0 mm 2 mps 755 mmHg 48%
11:00 +36°C° 0 mm 2 mps 755 mmHg 41%
12:00 +36°C° 0 mm 2 mps 754 mmHg 39%
13:00 +37°C° 0 mm 2 mps 753 mmHg 38%
14:00 +37°C° 0 mm 2 mps 752 mmHg 36%
15:00 +36°C° 0 mm 3 mps 752 mmHg 42%
16:00 +34°C° 0 mm 3 mps 752 mmHg 47%
17:00 +31°C° 0 mm 3 mps 752 mmHg 53%
18:00 +30°C° 0 mm 3 mps 752 mmHg 56%
19:00 +29°C° 0 mm 2 mps 753 mmHg 58%
20:00 +28°C° 0 mm 1 mps 754 mmHg 61%
21:00 +28°C° 0 mm 1 mps 754 mmHg 61%
22:00 +28°C° 0 mm 1 mps 754 mmHg 61%
23:00 +27°C° 0 mm 1 mps 754 mmHg 61%

Day after tomorrow, 2 December, Wednesday

Time Temperature Precipitation Wind Pressure Humidity
00:00 +27°C° 0 mm 1 mps 753 mmHg 60%
01:00 +27°C° 0 mm 1 mps 753 mmHg 59%
02:00 +26°C° 0 mm 1 mps 753 mmHg 58%
03:00 +26°C° 0 mm 1 mps 753 mmHg 58%
04:00 +26°C° 0 mm 1 mps 753 mmHg 57%
05:00 +26°C° 0 mm 1 mps 753 mmHg 57%
06:00 +27°C° 0 mm 1 mps 753 mmHg 55%
07:00 +27°C° 0 mm 1 mps 754 mmHg 54%
08:00 +28°C° 0 mm 1 mps 754 mmHg 52%
09:00 +31°C° 0 mm 1 mps 754 mmHg 46%
10:00 +33°C° 0 mm 1 mps 754 mmHg 41%
11:00 +35°C° 0 mm 1 mps 754 mmHg 35%
12:00 +36°C° 0 mm 2 mps 753 mmHg 33%
13:00 +37°C° 0 mm 2 mps 753 mmHg 32%
14:00 +37°C° 0 mm 3 mps 752 mmHg 30%
15:00 +35°C° 0 mm 3 mps 751 mmHg 35%
16:00 +33°C° 0 mm 3 mps 751 mmHg 40%
17:00 +30°C° 0 mm 3 mps 751 mmHg 45%
18:00 +29°C° 0 mm 2 mps 752 mmHg 48%
19:00 +28°C° 0 mm 1 mps 752 mmHg 50%
20:00 +27°C° 0 mm 1 mps 753 mmHg 52%
21:00 +26°C° 0 mm 1 mps 753 mmHg 51%
22:00 +26°C° 0 mm 1 mps 753 mmHg 50%
23:00 +26°C° 0 mm 1 mps 753 mmHg 50%

3 December, Thursday

Time Temperature Precipitation Wind Pressure Humidity
00:00 +25°C° 0 mm 1 mps 753 mmHg 48%
01:00 +25°C° 0 mm 1 mps 752 mmHg 46%
02:00 +25°C° 0 mm 1 mps 752 mmHg 44%
03:00 +24°C° 0 mm 1 mps 752 mmHg 44%
04:00 +24°C° 0 mm 1 mps 752 mmHg 44%
05:00 +23°C° 0 mm 1 mps 752 mmHg 45%
06:00 +25°C° 0 mm 1 mps 753 mmHg 43%
07:00 +26°C° 0 mm 1 mps 753 mmHg 42%
08:00 +27°C° 0 mm 1 mps 754 mmHg 41%
09:00 +29°C° 0 mm 1 mps 754 mmHg 37%
10:00 +32°C° 0 mm 1 mps 754 mmHg 32%
11:00 +34°C° 0 mm 1 mps 754 mmHg 28%
12:00 +36°C° 0 mm 2 mps 753 mmHg 27%
13:00 +36°C° 0 mm 2 mps 752 mmHg 26%
14:00 +36°C° 0 mm 2 mps 751 mmHg 25%
15:00 +34°C° 0 mm 2 mps 751 mmHg 30%
16:00 +32°C° 0 mm 2 mps 751 mmHg 36%
17:00 +30°C° 0 mm 2 mps 751 mmHg 42%
18:00 +28°C° 0 mm 2 mps 752 mmHg 44%
19:00 +27°C° 0 mm 1 mps 752 mmHg 46%
20:00 +26°C° 0 mm 1 mps 753 mmHg 48%
21:00 +25°C° 0 mm 1 mps 753 mmHg 47%
22:00 +25°C° 0 mm 1 mps 753 mmHg 46%
23:00 +25°C° 0 mm 1 mps 753 mmHg 45%

4 December, Friday

Time Temperature Precipitation Wind Pressure Humidity
00:00 +25°C° 0 mm 1 mps 752 mmHg 44%
01:00 +24°C° 0 mm 1 mps 752 mmHg 43%
02:00 +24°C° 0 mm 1 mps 751 mmHg 43%
03:00 +23°C° 0 mm 1 mps 751 mmHg 43%
04:00 +23°C° 0 mm 1 mps 751 mmHg 44%
05:00 +23°C° 0 mm 1 mps 751 mmHg 44%
06:00 +24°C° 0 mm 1 mps 752 mmHg 42%
07:00 +25°C° 0 mm 1 mps 753 mmHg 41%
08:00 +26°C° 0 mm 1 mps 753 mmHg 39%
09:00 +29°C° 0 mm 1 mps 753 mmHg 36%
10:00 +32°C° 0 mm 1 mps 753 mmHg 32%
11:00 +32°C° 0 mm 0 mps 753 mmHg 28%
12:00 +35°C° 0 mm 1 mps 752 mmHg 27%
13:00 +35°C° 0 mm 1 mps 752 mmHg 26%
14:00 +36°C° 0 mm 2 mps 751 mmHg 25%
15:00 +34°C° 0 mm 2 mps 751 mmHg 32%
16:00 +31°C° 0 mm 2 mps 751 mmHg 38%
17:00 +29°C° 0 mm 2 mps 751 mmHg 44%
18:00 +28°C° 0 mm 2 mps 751 mmHg 47%
19:00 +27°C° 0 mm 1 mps 752 mmHg 49%
20:00 +25°C° 0 mm 1 mps 752 mmHg 52%
21:00 +25°C° 0 mm 1 mps 752 mmHg 51%
22:00 +25°C° 0 mm 1 mps 752 mmHg 50%
23:00 +25°C° 0 mm 1 mps 752 mmHg 48%

5 December, Saturday

Time Temperature Precipitation Wind Pressure Humidity
00:00 +24°C° 0 mm 1 mps 752 mmHg 48%
01:00 +24°C° 0 mm 1 mps 752 mmHg 48%
02:00 +24°C° 0 mm 1 mps 751 mmHg 48%
03:00 +23°C° 0 mm 1 mps 751 mmHg 48%
04:00 +23°C° 0 mm 1 mps 751 mmHg 47%
05:00 +23°C° 0 mm 1 mps 751 mmHg 47%
06:00 +24°C° 0 mm 1 mps 752 mmHg 45%
07:00 +25°C° 0 mm 1 mps 753 mmHg 43%
08:00 +26°C° 0 mm 1 mps 753 mmHg 41%
09:00 +29°C° 0 mm 1 mps 753 mmHg 36%
10:00 +31°C° 0 mm 2 mps 753 mmHg 31%
11:00 +35°C° 0 mm 2 mps 753 mmHg 26%
12:00 +35°C° 0 mm 2 mps 752 mmHg 25%
13:00 +36°C° 0 mm 2 mps 751 mmHg 24%
14:00 +36°C° 0 mm 2 mps 750 mmHg 23%
15:00 +34°C° 0 mm 2 mps 750 mmHg 29%
16:00 +32°C° 0 mm 2 mps 750 mmHg 35%
17:00 +30°C° 0 mm 2 mps 750 mmHg 40%
18:00 +28°C° 0 mm 2 mps 751 mmHg 43%
19:00 +27°C° 0 mm 1 mps 751 mmHg 46%
20:00 +23°C° 0 mm 0 mps 752 mmHg 48%
21:00 +25°C° 0 mm 1 mps 752 mmHg 48%
22:00 +25°C° 0 mm 1 mps 752 mmHg 48%
23:00 +25°C° 0 mm 1 mps 752 mmHg 48%
Show more